User: anonymous   Login
Location: Unspecified
(0.0000°N, 0.0000°E)
Time: 21:49:51
(UTC+00:00)
Language:

SINAH 1 - Orbit

View from above orbital plane
View from above orbital plane
View from above satellite
View from above satellite

Ground track
Ground track

The orbit data is extracted from the following two-line orbital elements,

1 28893U 05043D   18343.96387374 -.00000004  00000-0  82914-5 0  9992
2 28893  97.9464 123.5050 0014036 247.3634 112.6083 14.61490379699447
Epoch (UTC): 09 December 2018 23:07:58
Eccentricity: 0.0014036
inclination: 97.9464°
perigee height: 678 km
apogee height: 698 km
right ascension of ascending node: 123.5050°
argument of perigee: 247.3634°
revolutions per day: 14.61490379
mean anomaly at epoch: 112.6083°
orbit number at epoch: 69944

The dashed part of the orbit path shows where the satellite is in the earth's shadow,  

DLR